Regional Weather Roundup
Issued by NWS Midland/Odessa, TX

Skip options and go directly to product.
Home | Oldest Version | Previous Version | Current Version | All | Text Only | Save Text | Print | Product List | Glossary Off

Skip product version selection by date and time.   

412
ASUS44 KMAF 201810
RWRMAF
MIDLAND AREA WEATHER ROUNDUP
NATIONAL WEATHER SERVICE MIDLAND TX
100 PM CDT SAT SEP 20 2014

...IN SOUTHWEST TEXAS AND SOUTHEAST NEW MEXICO...

CITY           SKY/WX    TMP DP  RH WIND       PRES   REMARKS
ALPINE         CLOUDY    79  64  60 NW5       30.15F
ANDREWS        CLOUDY    69  68  95 S5        30.07S
ARTESIA        NOT AVBL
BIG SPRING     CLOUDY    79  73  81 SE8       30.07S
CARLSBAD       CLOUDY    76  74  93 N8        30.07S
DRYDEN           N/A     86  72  62 E10       29.99S
FORT STOCKTON  PTSUNNY   79  70  74 N9        30.03F
GUAD PASS      MOSUNNY   73  64  73 E12         N/A
HOBBS          PTSUNNY   75  70  83 NE7       30.10S
MARFA          MOSUNNY   79  64  61 CALM      30.15F
MIDLAND AIRPK  NOT AVBL
MIDLAND INTL   PTSUNNY   77  71  82 SE12      30.04S
ODESSA         CLOUDY    77  70  79 SE8       30.05S
PECOS          CLOUDY    79  69  70 NW3       30.02F
PRESIDIO       FAIR      87  64  47 N3        30.00F
SEMINOLE       CLOUDY    74  68  83 NE6       30.08S
SNYDER         CLOUDY    71  70  96 SE9       30.07R
WINK           SUNNY     82  71  69 NE6       30.01F
$$
...OTHER STATIONS IN TEXAS...

CITY           SKY/WX    TMP DP  RH WIND       PRES   REMARKS
ABILENE        CLOUDY    80  69  69 SE12      30.04S
AMARILLO       CLOUDY    76  65  68 S12       30.12R
AUSTIN         CLOUDY    84  72  67 E7        29.98S
BROWNSVILLE    PTSUNNY   87  77  72 CALM      29.88F
CORPUS CHRISTI PTSUNNY   88  76  67 E14       29.92F
DALLAS FTW     PTSUNNY   88  68  51 SE13      30.00F
DEL RIO        CLOUDY    84  74  71 E9        29.96S
EL PASO        MOSUNNY   81  63  54 SW3       30.07F
HOUSTON INT    MOSUNNY   85  72  65 E12       29.97S
LUBBOCK        CLOUDY    70  67  90 SE16      30.09R
SAN ANGELO     CLOUDY    79  71  76 S5        30.03R
SAN ANTONIO    LGT RAIN  85  71  63 NE3       29.98F
WACO           MOSUNNY   82  71  69 VRB5      30.00F
WICHITA FALLS  NOT AVBL
$$
...OTHER LOCATIONS IN NEW MEXICO...

CITY           SKY/WX    TMP DP  RH WIND       PRES   REMARKS
ALAMAGORDO     MOSUNNY   77  66  69 S5        30.10F
ALBUQUERQUE    MOSUNNY   78  57  48 NW8       30.17F
CANNON AFB     PTSUNNY   71  61  68 E6        30.14S
CLOVIS           N/A     72  63  73 E9        30.16F
HOLLOMAN AFB   MOSUNNY   80  66  61 CALM      30.08F
ROSWELL        PTSUNNY   77  65  66 W3        30.10F
RUIDOSO        MOSUNNY   72  59  64 E6        30.29R
SANTA FE       SUNNY     79  49  34 N12       30.23S
TRUTH OR CONSE SUNNY     78  62  57 E6        30.13F
TUCUMCARI      MOSUNNY   82  61  48 E5        30.09F
$$

USA.gov is the U.S. government's official web portal to all federal, state and local government web resources and services.